Location: Barrialito
(10.1025°N, 66.8154°W)
Time: 23:16:22
(UTC+00:00)

USA 215 - Pass Details

Date: 10 December 2024
Orbit: 1099 x 1108 km, 123.0° (Epoch: 15 January)

Event Time Altitude Azimuth Distance (km) Brightness Sun altitude
Rises 23:44:23 0° 141° (SE) 3,917 6.0 -23.1°
Reaches altitude 10° 23:46:51 10° 140° (SE) 2,958 5.3 -23.7°
Maximum altitude 23:53:24 83° 53° (NE) 1,111 3.1 -25.2°
Drops below altitude 10° 23:59:56 10° 326° (NW) 2,951 5.6 -26.7°
Sets 00:02:24 0° 325° (NW) 3,907 6.3 -27.3°
